Tucson Davis Monthan, AZ

8:31 PM MST on June 24, 2018 (GMT -0700)
Davis-Monthan Air Force Base

Weather History for KDMA - December, 2017

Change the Weather History Date:

Saturday, December 2, 2017

  Actual Average Record
Temperature  
Mean Temperature 68 °F -  
Max Temperature 79 °F 67 °F 80 °F (1966)
Min Temperature 58 °F 40 °F 29 °F (1948)
Cooling Degree Days 4    
Growing Degree Days 18 (Base 50)    
Moisture  
Dew Point 32 °F    
Average Humidity 27    
Maximum Humidity 38    
Minimum Humidity 17    
Precipitation  
Precipitation 0.00 in - - ()
Sea Level Pressure  
Sea Level Pressure 29.96 in    
Wind  
Wind Speed 5 mph (SE)    
Max Wind Speed 8 mph    
Max Gust Speed -    
Visibility 10 miles    
Events      
Averages and records for this station are not official NWS values.
T = Trace of Precipitation, MM = Missing Value Source: NWS Daily Summary

Daily Weather History Graph

Daily Weather History Graph

Search for Another Location

Airport or City:

Astronomy

Dec. 02, 2017 Rise Set
Actual Time 7:07 AM MST 5:18 PM MST
Civil Twilight 6:40 AM MST 5:45 PM MST
Nautical Twilight 6:10 AM MST 6:15 PM MST
Astronomical Twilight 5:40 AM MST 6:45 PM MST
Moon 4:57 PM MST (12/2) 5:46 AM MST (12/2)
Length of Visible Light 11h 04m
Length of Day
10h 10m
Waxing Gibbous, 99% of the Moon is Illuminated
Dec 2
Waxing Gibbous
Dec 3
Full
Dec 10
Last Quarter
Dec 17
New
Dec 26
First Quarter

Hourly Weather History & Observations

Time (MST) Temp. Dew Point Humidity Pressure Visibility Wind Dir Wind Speed Gust Speed Precip Events Conditions
12:58 AM 61.5 °F 29.8 °F 30% 29.95 in 10.0 mi ENE 4.6 mph - N/A   Clear
1:58 AM 62.1 °F 29.5 °F 29% 29.94 in 10.0 mi SE 4.6 mph - N/A   Clear
2:58 AM 61.3 °F 29.7 °F 30% 29.94 in 10.0 mi SE 5.8 mph - N/A   Mostly Cloudy
3:58 AM 61.3 °F 29.7 °F 30% 29.94 in 10.0 mi SSE 3.5 mph - N/A   Mostly Cloudy
4:58 AM 62.1 °F 30.2 °F 30% 29.93 in 10.0 mi SE 8.1 mph - N/A   Scattered Clouds
5:58 AM 63.0 °F 29.3 °F 28% 29.95 in 10.0 mi SSE 5.8 mph - N/A   Overcast
6:58 AM 61.0 °F 29.3 °F 30% 29.97 in 10.0 mi SE 6.9 mph - N/A   Clear
7:58 AM 58.8 °F 29.8 °F 33% 30.00 in 10.0 mi NW 3.5 mph - N/A   Overcast
8:58 AM 63.5 °F 29.8 °F 28% 30.00 in 10.0 mi ESE 6.9 mph - N/A   Clear
9:58 AM 70.0 °F 30.4 °F 23% 30.00 in 10.0 mi SE 5.8 mph - N/A   Clear
10:58 AM 73.0 °F 30.7 °F 21% 29.98 in 10.0 mi SE 6.9 mph - N/A   Scattered Clouds
11:58 AM 77.0 °F 31.6 °F 19% 29.96 in 10.0 mi Calm Calm - N/A   Clear
12:58 PM 77.4 °F 31.8 °F 19% 29.94 in 10.0 mi SSW 3.5 mph - N/A   Clear
1:58 PM 79.0 °F 30.4 °F 17% 29.93 in 10.0 mi North 4.6 mph - N/A   Partly Cloudy
2:58 PM 76.1 °F 32.2 °F 20% 29.91 in 10.0 mi Calm Calm - N/A   Overcast
3:58 PM 74.7 °F 34.3 °F 23% 29.93 in 10.0 mi East 5.8 mph - N/A   Overcast
4:58 PM 73.2 °F 33.3 °F 23% 29.93 in 10.0 mi SE 5.8 mph - N/A   Overcast
5:58 PM 71.6 °F 34.0 °F 25% 29.93 in 10.0 mi South 4.6 mph - N/A   Mostly Cloudy
6:58 PM 69.1 °F 34.5 °F 28% 29.96 in 10.0 mi SE 6.9 mph - N/A   Partly Cloudy
7:58 PM 67.5 °F 34.2 °F 29% 29.97 in 10.0 mi SSE 5.8 mph - N/A   Mostly Cloudy
8:58 PM 65.8 °F 34.3 °F 31% 29.98 in 10.0 mi South 8.1 mph - N/A   Scattered Clouds
9:58 PM 62.2 °F 34.2 °F 35% 29.98 in 10.0 mi ESE 6.9 mph - N/A   Partly Cloudy
10:58 PM 59.5 °F 34.0 °F 38% 29.99 in 10.0 mi SSE 8.1 mph - N/A   Clear
11:58 PM 59.4 °F 33.8 °F 38% 29.98 in 10.0 mi SE 5.8 mph - N/A   Scattered Clouds